Tracking 29892 objects as of 21-Nov-2024
HD Live streaming from Space Station
objects crossing your sky now

CZ-6A DEB

Track CZ-6A DEB now!
10-day predictions


NORAD ID: 54574
Int'l Code: 2022-151MA
Perigee: 664.5 km
Apogee: 823.1 km
Inclination: 98.6 °
Period: 99.5 minutes
Semi major axis: 7114 km
RCS: Unknown
Launch date: November 11, 2022
Source: People's Republic of China (PRC)
Launch site: Taiyaun Space Center, China (TSC)

Note: This is SATELLITE DEBRIS
Your satellite tracking list
Your tracking list is empty




NASA's NSSDC Master Catalog

Two Line Element Set (TLE):
1 54574U 22151MA  24325.49366154  .00007173  00000-0  18507-2 0  9991
2 54574  98.6147 348.8755 0111509 243.9238 115.0442 14.46635440105864
Source of the keplerian elements: AFSPC